When you browse on this site, cookies collect data to enhance your experience and personalize the content and advertising you see.
Visit our Privacy Policy to learn more. By continuing to use the site, you agree to this use of cookies and data.
  • In Latvia
  • List of Countries
  • For 7 days
  • Water Temperature
  • Weather Map
  • Weather Widgets
  • user-avatar
    Login

    Hourly Weather Verhnevodyanoy

    Today, 18 October, Friday

    Time Temperature Precipitation Wind Pressure Humidity
    00:00 +12°C° 0 mm 5 mps 753 mmHg 75%
    01:00 +10°C° 0 mm 5 mps 753 mmHg 78%
    02:00 +10°C° 0 mm 5 mps 753 mmHg 80%
    03:00 +11°C° 0 mm 4 mps 753 mmHg 83%
    04:00 +10°C° 0 mm 4 mps 752 mmHg 85%
    05:00 +10°C° 0 mm 4 mps 752 mmHg 87%
    06:00 +10°C° 0 mm 4 mps 752 mmHg 88%
    07:00 +11°C° 0 mm 4 mps 752 mmHg 83%
    08:00 +12°C° 0 mm 4 mps 752 mmHg 78%
    09:00 +13°C° 0 mm 4 mps 752 mmHg 73%
    10:00 +15°C° 0 mm 4 mps 752 mmHg 64%
    11:00 +18°C° 0 mm 4 mps 752 mmHg 56%
    12:00 +20°C° 0 mm 4 mps 751 mmHg 48%
    13:00 +21°C° 0 mm 4 mps 751 mmHg 45%
    14:00 +21°C° 0 mm 4 mps 751 mmHg 42%
    15:00 +22°C° 0 mm 3 mps 751 mmHg 39%
    16:00 +20°C° 0 mm 3 mps 750 mmHg 43%
    17:00 +19°C° 0 mm 3 mps 750 mmHg 46%
    18:00 +18°C° 0 mm 2 mps 750 mmHg 50%
    19:00 +17°C° 0 mm 2 mps 750 mmHg 52%
    20:00 +16°C° 0 mm 2 mps 750 mmHg 53%
    21:00 +16°C° 0 mm 2 mps 750 mmHg 55%
    22:00 +16°C° 0 mm 2 mps 750 mmHg 56%
    23:00 +15°C° 0 mm 2 mps 750 mmHg 58%

    Tomorrow, 19 October, Saturday

    Time Temperature Precipitation Wind Pressure Humidity
    00:00 +15°C° 0 mm 2 mps 750 mmHg 59%
    01:00 +15°C° 0 mm 2 mps 750 mmHg 60%
    02:00 +14°C° 0 mm 2 mps 750 mmHg 60%
    03:00 +14°C° 0 mm 2 mps 750 mmHg 61%
    04:00 +14°C° 0 mm 2 mps 751 mmHg 62%
    05:00 +14°C° 0 mm 2 mps 751 mmHg 62%
    06:00 +13°C° 0 mm 2 mps 751 mmHg 63%
    07:00 +15°C° 0 mm 2 mps 751 mmHg 58%
    08:00 +16°C° 0 mm 2 mps 752 mmHg 53%
    09:00 +18°C° 0 mm 2 mps 752 mmHg 49%
    10:00 +19°C° 0 mm 2 mps 752 mmHg 45%
    11:00 +20°C° 0 mm 2 mps 752 mmHg 40%
    12:00 +23°C° 0 mm 2 mps 752 mmHg 36%
    13:00 +23°C° 0 mm 2 mps 752 mmHg 36%
    14:00 +24°C° 0 mm 2 mps 752 mmHg 35%
    15:00 +24°C° 0 mm 2 mps 752 mmHg 34%
    16:00 +21°C° 0 mm 2 mps 752 mmHg 38%
    17:00 +20°C° 0 mm 3 mps 752 mmHg 43%
    18:00 +18°C° 0 mm 3 mps 752 mmHg 47%
    19:00 +18°C° 0 mm 3 mps 753 mmHg 50%
    20:00 +17°C° 0 mm 3 mps 753 mmHg 52%
    21:00 +16°C° 0 mm 3 mps 753 mmHg 54%
    22:00 +16°C° 0 mm 3 mps 753 mmHg 56%
    23:00 +14°C° 0 mm 3 mps 753 mmHg 58%

    Day after tomorrow, 20 October, Sunday

    Time Temperature Precipitation Wind Pressure Humidity
    00:00 +14°C° 0 mm 3 mps 754 mmHg 59%
    01:00 +14°C° 0 mm 3 mps 754 mmHg 61%
    02:00 +13°C° 0 mm 3 mps 754 mmHg 62%
    03:00 +13°C° 0 mm 3 mps 754 mmHg 63%
    04:00 +13°C° 0 mm 3 mps 754 mmHg 64%
    05:00 +12°C° 0 mm 3 mps 754 mmHg 65%
    06:00 +12°C° 0 mm 3 mps 755 mmHg 66%
    07:00 +13°C° 0 mm 3 mps 755 mmHg 62%
    08:00 +14°C° 0 mm 4 mps 755 mmHg 58%
    09:00 +17°C° 0 mm 4 mps 755 mmHg 54%
    10:00 +18°C° 0 mm 4 mps 755 mmHg 49%
    11:00 +20°C° 0 mm 4 mps 755 mmHg 45%
    12:00 +21°C° 0 mm 4 mps 756 mmHg 41%
    13:00 +21°C° 0 mm 4 mps 755 mmHg 40%
    14:00 +21°C° 0 mm 4 mps 755 mmHg 39%
    15:00 +22°C° 0 mm 4 mps 755 mmHg 38%
    16:00 +20°C° 0 mm 4 mps 755 mmHg 43%
    17:00 +19°C° 0 mm 4 mps 755 mmHg 47%
    18:00 +17°C° 0 mm 4 mps 755 mmHg 51%
    19:00 +15°C° 0 mm 4 mps 756 mmHg 53%
    20:00 +15°C° 0 mm 4 mps 756 mmHg 55%
    21:00 +14°C° 0 mm 4 mps 756 mmHg 57%
    22:00 +14°C° 0 mm 4 mps 756 mmHg 61%
    23:00 +13°C° 0 mm 4 mps 756 mmHg 65%

    21 October, Monday

    Time Temperature Precipitation Wind Pressure Humidity
    00:00 +13°C° 0 mm 4 mps 756 mmHg 69%
    01:00 +13°C° 0 mm 4 mps 756 mmHg 71%
    02:00 +12°C° 0 mm 4 mps 756 mmHg 72%
    03:00 +12°C° 0 mm 4 mps 756 mmHg 74%
    04:00 +11°C° 0 mm 4 mps 756 mmHg 73%
    05:00 +11°C° 0 mm 4 mps 756 mmHg 71%
    06:00 +11°C° 0 mm 4 mps 757 mmHg 70%
    07:00 +12°C° 0 mm 5 mps 757 mmHg 66%
    08:00 +13°C° 0 mm 5 mps 757 mmHg 62%
    09:00 +14°C° 0 mm 5 mps 757 mmHg 58%
    10:00 +15°C° 0 mm 5 mps 757 mmHg 54%
    11:00 +16°C° 0 mm 5 mps 757 mmHg 50%
    12:00 +19°C° 0 mm 5 mps 757 mmHg 46%
    13:00 +19°C° 0 mm 5 mps 757 mmHg 46%
    14:00 +19°C° 0 mm 5 mps 757 mmHg 45%
    15:00 +19°C° 0 mm 5 mps 756 mmHg 45%
    16:00 +18°C° 0 mm 4 mps 756 mmHg 49%
    17:00 +15°C° 0 mm 4 mps 756 mmHg 53%
    18:00 +14°C° 0 mm 4 mps 756 mmHg 57%
    19:00 +13°C° 0 mm 4 mps 756 mmHg 59%
    20:00 +13°C° 0 mm 4 mps 756 mmHg 60%
    21:00 +12°C° 0 mm 4 mps 756 mmHg 61%
    22:00 +12°C° 0 mm 4 mps 756 mmHg 62%
    23:00 +11°C° 0 mm 4 mps 756 mmHg 64%

    22 October, Tuesday

    Time Temperature Precipitation Wind Pressure Humidity
    00:00 +11°C° 0 mm 4 mps 756 mmHg 65%
    01:00 +11°C° 0 mm 4 mps 755 mmHg 66%
    02:00 +10°C° 0 mm 3 mps 755 mmHg 67%
    03:00 +10°C° 0 mm 3 mps 755 mmHg 69%
    04:00 +10°C° 0 mm 3 mps 755 mmHg 69%
    05:00 +9°C° 0 mm 3 mps 755 mmHg 70%
    06:00 +9°C° 0 mm 3 mps 755 mmHg 71%
    07:00 +10°C° 0 mm 3 mps 755 mmHg 66%
    08:00 +12°C° 0 mm 4 mps 756 mmHg 61%
    09:00 +13°C° 0 mm 4 mps 756 mmHg 55%
    10:00 +14°C° 0 mm 4 mps 755 mmHg 51%
    11:00 +17°C° 0 mm 4 mps 755 mmHg 47%
    12:00 +18°C° 0 mm 4 mps 755 mmHg 43%
    13:00 +19°C° 0 mm 4 mps 754 mmHg 42%
    14:00 +19°C° 0 mm 3 mps 754 mmHg 41%
    15:00 +19°C° 0 mm 3 mps 753 mmHg 40%
    16:00 +18°C° 0 mm 3 mps 753 mmHg 44%
    17:00 +17°C° 0 mm 2 mps 753 mmHg 48%
    18:00 +15°C° 0 mm 2 mps 753 mmHg 52%
    19:00 +15°C° 0 mm 2 mps 753 mmHg 53%
    20:00 +14°C° 0 mm 2 mps 753 mmHg 54%
    21:00 +14°C° 0 mm 2 mps 753 mmHg 55%
    22:00 +13°C° 0 mm 2 mps 753 mmHg 56%
    23:00 +13°C° 0 mm 2 mps 752 mmHg 57%

    23 October, Wednesday

    Time Temperature Precipitation Wind Pressure Humidity
    00:00 +12°C° 0 mm 2 mps 752 mmHg 58%
    01:00 +12°C° 0 mm 1 mps 752 mmHg 59%
    02:00 +12°C° 0 mm 1 mps 752 mmHg 61%
    03:00 +11°C° 0 mm 0 mps 752 mmHg 62%
    04:00 +10°C° 0 mm 0 mps 752 mmHg 63%
    05:00 +10°C° 0 mm 0 mps 752 mmHg 64%
    06:00 +10°C° 0 mm 0 mps 752 mmHg 65%
    07:00 +11°C° 0 mm 0 mps 753 mmHg 61%
    08:00 +13°C° 0 mm 1 mps 753 mmHg 56%
    09:00 +15°C° 0 mm 1 mps 753 mmHg 52%
    10:00 +16°C° 0 mm 1 mps 753 mmHg 48%
    11:00 +18°C° 0 mm 1 mps 753 mmHg 44%
    12:00 +20°C° 0 mm 1 mps 753 mmHg 40%
    13:00 +20°C° 0 mm 1 mps 753 mmHg 38%
    14:00 +21°C° 0 mm 1 mps 753 mmHg 37%
    15:00 +20°C° 0 mm 2 mps 753 mmHg 35%
    16:00 +19°C° 0 mm 2 mps 753 mmHg 40%
    17:00 +17°C° 0 mm 2 mps 753 mmHg 44%
    18:00 +16°C° 0 mm 2 mps 754 mmHg 49%
    19:00 +15°C° 0 mm 2 mps 754 mmHg 54%
    20:00 +15°C° 0 mm 2 mps 754 mmHg 59%
    21:00 +13°C° 0 mm 3 mps 754 mmHg 64%
    22:00 +12°C° 0 mm 3 mps 754 mmHg 68%
    23:00 +12°C° 0 mm 3 mps 754 mmHg 72%
    Show more